| time (UTC) | temp F | wind direction | speed MPH | gust MPH | rain 1hr in | rain 24hr in | rain mn in | humidity % | barometer mb |
| 20260831063103 | 76 | 161 | 4.0 | 0.0 | 0.00 | 0.00 | 0.00 | 78 | 1011.6 |
| 20260831061505 | 77 | 174 | 6.0 | 0.0 | 0.00 | 0.00 | 0.00 | 77 | 1011.6 |
| 20260831060104 | 77 | 155 | 6.0 | 0.0 | 0.00 | 0.00 | 0.00 | 75 | 1011.3 |
| 20260831054603 | 78 | 115 | 6.0 | 0.0 | 0.00 | 0.00 | 0.00 | 71 | 1011.4 |
| 20260831053110 | 78 | 101 | 6.0 | 0.0 | 0.00 | 0.00 | 0.00 | 68 | 1011.1 |
| 20260831050006 | 79 | 134 | 6.0 | 0.0 | 0.00 | 0.00 | 0.00 | 67 | 1011.1 |
| 20260831043001 | 80 | 143 | 4.0 | 0.0 | 0.00 | 0.00 | 0.00 | 65 | 1010.9 |
| 20260831041508 | 81 | 164 | 5.0 | 0.0 | 0.00 | 0.00 | 0.00 | 65 | 1010.7 |
| 20260831040002 | 82 | 159 | 6.0 | 0.0 | 0.00 | 0.00 | 0.00 | 65 | 1010.8 |
| 20260831034605 | 82 | 140 | 6.0 | 0.0 | 0.00 | 0.00 | 0.00 | 65 | 1010.7 |
| 20260831033134 | 82 | 155 | 5.0 | 0.0 | 0.00 | 0.00 | 0.00 | 65 | 1010.7 |
| 20260831030002 | 83 | 141 | 3.0 | 0.0 | 0.00 | 0.00 | 0.00 | 63 | 1010.6 |
| 20260831024627 | 82 | 153 | 2.0 | 0.0 | 0.00 | 0.00 | 0.00 | 61 | 1010.5 |
| 20260831023001 | 83 | 134 | 1.0 | 0.0 | 0.00 | 0.00 | 0.00 | 57 | 1010.2 |
| 20260831021502 | 82 | 117 | 1.0 | 0.0 | 0.00 | 0.00 | 0.00 | 56 | 1009.9 |
| 20260831020007 | 82 | 88 | 0.0 | 0.0 | 0.00 | 0.00 | 0.00 | 57 | 1009.9 |
| 20260831011503 | 84 | 136 | 0.0 | 0.0 | 0.00 | 0.00 | 0.00 | 53 | 1009.5 |
| 20260831010006 | 86 | 136 | 0.0 | 0.0 | 0.00 | 0.00 | 0.00 | 51 | 1009.5 |
| 20260831004604 | 87 | 126 | 2.0 | 0.0 | 0.00 | 0.00 | 0.00 | 49 | 1009.3 |
| 20260831003005 | 88 | 131 | 2.0 | 0.0 | 0.00 | 0.00 | 0.00 | 47 | 1009.2 |
| 20260831001604 | 89 | 96 | 2.0 | 0.0 | 0.00 | 0.00 | 0.00 | 45 | 1009.2 |
| 20260831000002 | 90 | 128 | 4.0 | 0.0 | 0.00 | 0.00 | 0.00 | 44 | 1009.1 |
| 20260830234502 | 91 | 111 | 3.0 | 0.0 | 0.00 | 0.00 | 0.00 | 44 | 1009.0 |
| 20260830231506 | 91 | 193 | 5.0 | 0.0 | 0.00 | 0.00 | 0.00 | 45 | 1009.0 |
| 20260830230008 | 92 | 138 | 5.0 | 0.0 | 0.00 | 0.00 | 0.00 | 45 | 1009.0 |
| 20260830224607 | 92 | 171 | 3.0 | 0.0 | 0.00 | 0.00 | 0.00 | 45 | 1009.1 |
| 20260830223002 | 91 | 157 | 3.0 | 0.0 | 0.00 | 0.00 | 0.00 | 44 | 1009.3 |
| 20260830221508 | 92 | 72 | 2.0 | 0.0 | 0.00 | 0.00 | 0.00 | 46 | 1009.1 |
| 20260830220013 | 91 | 150 | 3.0 | 0.0 | 0.00 | 0.00 | 0.00 | 48 | 1009.4 |
| 20260830214505 | 92 | 155 | 3.0 | 0.0 | 0.00 | 0.00 | 0.00 | 44 | 1009.4 |
| 20260830213006 | 93 | 136 | 4.0 | 0.0 | 0.00 | 0.00 | 0.00 | 45 | 1009.6 |
| 20260830211607 | 93 | 164 | 4.0 | 0.0 | 0.00 | 0.00 | 0.00 | 44 | 1009.6 |
| 20260830210009 | 91 | 101 | 4.0 | 0.0 | 0.00 | 0.00 | 0.00 | 47 | 1010.0 |
| 20260830204606 | 91 | 104 | 4.0 | 0.0 | 0.00 | 0.00 | 0.00 | 46 | 1010.3 |
| 20260830203104 | 91 | 157 | 5.0 | 0.0 | 0.00 | 0.00 | 0.00 | 46 | 1010.4 |
| 20260830201615 | 92 | 181 | 5.0 | 0.0 | 0.00 | 0.00 | 0.00 | 48 | 1010.4 |
| 20260830194504 | 91 | 87 | 4.0 | 0.0 | 0.00 | 0.00 | 0.00 | 47 | 1011.2 |
| 20260830193041 | 91 | 173 | 8.0 | 0.0 | 0.00 | 0.00 | 0.00 | 46 | 1011.3 |
| 20260830191503 | 91 | 153 | 3.0 | 0.0 | 0.00 | 0.00 | 0.00 | 48 | 1011.5 |
| 20260830183006 | 90 | 228 | 4.0 | 0.0 | 0.00 | 0.00 | 0.00 | 50 | 1011.9 |
| 20260830180111 | 88 | 226 | 6.0 | 0.0 | 0.00 | 0.00 | 0.00 | 54 | 1012.7 |
| 20260830174506 | 88 | 198 | 5.0 | 0.0 | 0.00 | 0.00 | 0.00 | 54 | 1012.8 |
| 20260830173112 | 86 | 206 | 5.0 | 0.0 | 0.00 | 0.00 | 0.00 | 59 | 1013.0 |
| 20260830171621 | 86 | 152 | 4.0 | 0.0 | 0.00 | 0.00 | 0.00 | 60 | 1013.1 |
| 20260830164602 | 84 | 267 | 3.0 | 0.0 | 0.00 | 0.00 | 0.00 | 62 | 1013.3 |
| 20260830163004 | 82 | 186 | 5.0 | 0.0 | 0.00 | 0.00 | 0.00 | 67 | 1013.5 |
| 20260830161502 | 83 | 223 | 4.0 | 0.0 | 0.00 | 0.00 | 0.00 | 68 | 1013.4 |
| 20260830154603 | 81 | 198 | 5.0 | 0.0 | 0.00 | 0.00 | 0.00 | 71 | 1013.3 |
| 20260830153102 | 81 | 176 | 5.0 | 0.0 | 0.00 | 0.00 | 0.00 | 71 | 1013.3 |
| 20260830151507 | 80 | 248 | 5.0 | 0.0 | 0.00 | 0.00 | 0.00 | 74 | 1013.4 |
| 20260830150002 | 79 | 180 | 6.0 | 0.0 | 0.00 | 0.00 | 0.00 | 76 | 1013.3 |
| 20260830144506 | 78 | 165 | 6.0 | 0.0 | 0.00 | 0.00 | 0.00 | 78 | 1013.3 |
| 20260830143004 | 77 | 173 | 6.0 | 0.0 | 0.00 | 0.00 | 0.00 | 80 | 1013.4 |
| 20260830141503 | 76 | 215 | 5.0 | 0.0 | 0.00 | 0.00 | 0.00 | 83 | 1013.3 |
| 20260830134602 | 74 | 225 | 6.0 | 0.0 | 0.00 | 0.00 | 0.00 | 87 | 1013.3 |
| 20260830133012 | 74 | 190 | 5.0 | 0.0 | 0.00 | 0.00 | 0.00 | 88 | 1013.1 |
| 20260830131507 | 73 | 180 | 5.0 | 0.0 | 0.00 | 0.00 | 0.00 | 89 | 1013.0 |
| 20260830124603 | 72 | 190 | 4.0 | 0.0 | 0.00 | 0.00 | 0.00 | 91 | 1012.7 |
| 20260830123006 | 72 | 211 | 5.0 | 0.0 | 0.00 | 0.00 | 0.00 | 90 | 1012.4 |
| 20260830121605 | 72 | 198 | 6.0 | 0.0 | 0.00 | 0.00 | 0.00 | 90 | 1012.4 |
| 20260830120004 | 72 | 224 | 4.0 | 0.0 | 0.00 | 0.00 | 0.00 | 91 | 1012.1 |
| 20260830114504 | 72 | 191 | 6.0 | 0.0 | 0.00 | 0.00 | 0.00 | 90 | 1012.1 |
| 20260830113102 | 72 | 181 | 6.0 | 0.0 | 0.00 | 0.00 | 0.00 | 90 | 1012.2 |
| 20260830111602 | 72 | 179 | 7.0 | 0.0 | 0.00 | 0.00 | 0.00 | 90 | 1012.1 |
| 20260830110002 | 72 | 178 | 6.0 | 0.0 | 0.00 | 0.00 | 0.00 | 90 | 1012.0 |
| 20260830104601 | 72 | 178 | 8.0 | 0.0 | 0.00 | 0.00 | 0.00 | 90 | 1011.9 |
| 20260830103104 | 72 | 152 | 6.0 | 0.0 | 0.00 | 0.00 | 0.00 | 90 | 1012.0 |
| 20260830101602 | 72 | 164 | 7.0 | 0.0 | 0.00 | 0.00 | 0.00 | 89 | 1011.9 |
| 20260830100002 | 72 | 187 | 7.0 | 0.0 | 0.00 | 0.00 | 0.00 | 88 | 1012.0 |
| 20260830093104 | 72 | 190 | 4.0 | 0.0 | 0.00 | 0.00 | 0.00 | 87 | 1011.9 |
| 20260830091602 | 72 | 186 | 4.0 | 0.0 | 0.00 | 0.00 | 0.00 | 86 | 1011.9 |
| 20260830083106 | 73 | 175 | 4.0 | 0.0 | 0.00 | 0.00 | 0.00 | 83 | 1011.7 |
| 20260830081502 | 73 | 171 | 3.0 | 0.0 | 0.00 | 0.00 | 0.00 | 83 | 1011.9 |
| 20260830080106 | 74 | 185 | 4.0 | 0.0 | 0.00 | 0.00 | 0.00 | 81 | 1012.0 |
| 20260830074504 | 74 | 160 | 3.0 | 0.0 | 0.00 | 0.00 | 0.00 | 79 | 1012.4 |
| 20260830073007 | 74 | 180 | 3.0 | 0.0 | 0.00 | 0.00 | 0.00 | 77 | 1012.4 |
| 20260830071502 | 75 | 173 | 4.0 | 0.0 | 0.00 | 0.00 | 0.00 | 76 | 1012.3 |
| 20260830070007 | 75 | 159 | 4.0 | 0.0 | 0.00 | 0.00 | 0.00 | 75 | 1012.4 |